SES-8

Last updated on Sun Apr 12 2026 00:02:53 GMT+0000 (Coordinated Universal Time)

1 39460U 13071A 26101.46850309 -.00000268 00000+0 00000+0 0 9994 2 39460 0.0175 256.5815 0002330 147.1987 59.5745 1.00272667 43760
UTC large
Height (km)
Speed (km/s)
/
Latitude / Longitude
Inclination (degrees)
Orbital Period (minutes)
Azimuth
Elevation
Range (km)
Doppler Factor

Next 0 passes for location: London (51.5072 / 0.1276)

Sorry there are no passes over London.
SES-8